#timestamp,LO_Frequency,Hit,StdDev 
1541887215.2,286047006.0,Y
1541887235.0,286047003.9,P
1541887235.9,286047003.9,P
1541887255.8,286047004.3,P
1541887275.6,286047002.9,Y
1541887295.5,286047000.5,P
1541887315.3,286047001.1,N
1541887335.1,286047000.5,N
1541887355.9,286047000.4,N
1541887375.7,286047000.4,N
1541887395.5,286047002.2,N
1541887415.4,286047001.3,N
1541887435.2,286047001.5,N
1541887455.1,286046999.7,N
1541887456.0,286046999.7,N
1541887475.8,286047000.2,N
1541887495.6,286047002.0,N
1541887515.5,286047001.9,N
1541887535.3,286047001.7,N
1541887555.1,286047001.9,N
1541887575.9,286047002.6,N
1541887595.7,286047000.3,N
1541887615.6,286047001.0,N
1541887635.4,286046999.9,N
1541887655.2,286047001.8,N
1541887675.1,286047004.0,Y
1541887676.0,286047004.0,P
1541887695.8,286047001.8,N
1541887715.6,286047002.6,N
1541887735.5,286046999.9,N
1541887755.3,286046999.9,N
1541887775.2,286047002.6,N
1541887795.9,286047002.0,N
1541887815.7,286047001.6,N
1541887835.6,286047003.3,N
1541887855.4,286047005.5,Y
1541887875.2,286047002.1,P
1541887895.1,286046999.9,N
1541887896.0,286046999.9,N
1541887915.8,286047001.0,N
1541887935.7,286047002.6,N
1541887955.5,286046999.7,N
1541887975.3,286046999.9,N
1541887995.2,286047004.4,Y
1541888015.0,286047001.9,P
1541888015.9,286047001.9,P
1541888035.8,286047002.5,P
1541888055.6,286047002.0,Y
1541888075.4,286047000.3,P
1541888095.3,286047000.0,N
1541888115.1,286047000.3,N
1541888135.8,286046999.9,N
1541888155.7,286047001.0,N
1541888175.5,286046998.2,N
1541888195.4,286047000.9,N
1541888215.2,286047000.9,N
1541888235.0,286047000.5,N
1541888235.9,286047000.5,N
1541888255.8,286047001.0,N
1541888275.6,286046999.9,N
1541888295.4,286047000.5,N
1541888315.3,286047000.6,N
1541888335.1,286046998.1,N
1541888355.9,286046999.9,N
1541888375.7,286046999.8,N
1541888395.5,286046999.9,N
1541888415.4,286047000.1,N
1541888435.2,286047000.2,N
1541888455.0,286047002.5,Y
1541888455.9,286047002.5,P
1541888475.8,286046999.9,N
1541888495.6,286047001.5,N
1541888515.5,286047004.3,Y
1541888535.3,286047002.0,P
1541888555.1,286047002.2,P
1541888575.9,286047002.2,P
1541888595.7,286047002.0,Y
1541888615.5,286046999.3,P
1541888635.4,286046996.6,N
1541888655.2,286046999.6,N
1541888675.1,286046998.5,N
1541888676.0,286046998.5,N
1541888695.8,286047000.3,N
1541888715.6,286046996.6,N
1541888735.5,286046999.8,N
1541888755.3,286047000.9,N
1541888775.1,286046999.5,N
1541888795.9,286046999.6,N
1541888815.7,286046999.3,N
1541888835.6,286046999.6,N
1541888855.4,286046996.1,N
1541888875.2,286046993.3,Y
1541888895.1,286046997.6,P
1541888896.0,286046997.6,P
1541888915.8,286046997.2,P
1541888935.6,286046999.3,N
1541888955.5,286046998.4,N
1541888975.3,286046998.9,N
1541888995.2,286047000.5,N
1541889015.9,286047000.7,N
1541889035.7,286046998.4,N
1541889055.6,286046998.4,N
1541889075.4,286046998.4,N
1541889095.2,286046998.1,N
1541889115.1,286047002.3,N
1541889116.0,286047002.3,N
1541889135.8,286047002.8,N
1541889155.7,286047002.8,N
1541889175.5,286047001.0,N
1541889195.3,286047000.9,N
1541889215.2,286047002.2,N
1541889235.0,286047002.5,N
1541889235.9,286047002.5,N
1541889255.7,286047002.4,N
1541889275.6,286047002.4,N
1541889295.4,286047000.7,N
1541889315.3,286047001.2,N
1541889335.1,286046998.2,N
1541889336.0,286046998.2,N
1541889355.8,286047001.1,N
1541889375.7,286046998.2,N
1541889395.5,286046998.1,N
1541889415.3,286047000.2,N
1541889435.2,286047000.3,N
1541889455.0,286047000.7,N
1541889455.9,286047000.7,N
1541889475.8,286046999.9,N
1541889495.6,286047000.8,N
1541889515.4,286047001.2,N
1541889535.3,286046998.1,N
1541889555.1,286047001.2,N
1541889575.9,286047000.8,N
1541889595.7,286047000.6,N
1541889615.5,286047002.7,N
1541889635.4,286046999.8,N
1541889655.2,286047002.7,N
1541889675.1,286047002.1,N
1541889676.0,286047002.1,N
1541889695.8,286047001.7,N
1541889715.6,286047002.4,N
1541889735.5,286047001.9,N
1541889755.3,286047002.3,N
1541889775.1,286047002.4,N
1541889795.9,286047003.8,N
1541889815.7,286047001.9,N
1541889835.6,286047002.0,N
1541889855.4,286047004.0,N
1541889875.2,286047001.3,N
1541889895.1,286047002.7,N
1541889896.0,286047002.7,N
1541889915.8,286047004.0,N
1541889935.6,286047005.7,Y
1541889955.5,286047006.0,P
1541889975.3,286047003.4,N
1541889995.2,286047005.2,N
1541890015.9,286047007.4,Y
1541890035.7,286047000.1,P
1541890055.6,286047000.8,N
1541890075.4,286046998.7,N
1541890095.2,286047002.8,N
1541890115.1,286047000.9,N
1541890116.0,286047000.9,N
1541890135.8,286047002.8,N
1541890155.7,286047003.0,N
1541890175.5,286047005.0,Y
1541890195.3,286047001.8,P
1541890215.2,286047000.9,P
1541890235.0,286047000.3,N
1541890235.9,286047000.3,N
1541890255.8,286046999.7,N
1541890275.6,286046998.3,N
1541890295.4,286046997.1,N
1541890315.3,286046997.3,N
1541890335.1,286046997.2,N
1541890336.0,286046997.2,N
1541890355.8,286046998.0,N
1541890375.7,286046997.2,N
1541890395.5,286046995.6,N
1541890415.3,286046995.5,N
1541890435.2,286046998.0,N
1541890455.0,286046997.9,N
1541890455.9,286046997.9,N
1541890475.8,286046997.5,N
1541890495.6,286046995.0,N
1541890515.4,286046995.3,N
1541890535.3,286046995.8,N
1541890555.1,286046995.9,N
1541890575.8,286046995.4,N
1541890595.7,286046997.3,N
1541890615.5,286046995.3,N
1541890635.4,286046995.2,N
1541890655.2,286046994.9,N
1541890675.0,286046997.9,N
1541890675.9,286046997.9,N
1541890695.8,286046994.9,N
1541890715.6,286046993.7,Y
1541890735.4,286046997.9,P
1541890755.3,286046997.5,P
1541890775.1,286046996.5,P
1541890795.9,286046996.8,Y
